GW3137 Weather Reports


time (UTC)temp
C
wind
direction
speed
KPH
gust
KPH
rain 1hr
cm
rain 24hr
cm
rain mn
cm
humidity
%
barometer
mb
20260505040204 18 158 4.8 14.5 0.00 0.00 0.00 67 1010.1
20260505033704 20 202 4.8 9.7 0.00 0.00 0.00 63 1009.7
20260505033205 20 208 4.8 16.1 0.00 0.00 0.00 63 1009.6
20260505030704 21 209 6.4 16.1 0.00 0.00 0.00 59 1009.2
20260505030204 22 199 3.2 16.1 0.00 0.00 0.00 58 1009.2
20260505023204 24 245 4.8 14.5 0.00 0.00 0.00 52 1009.0
20260505020204 26 244 4.8 14.5 0.00 0.00 0.00 50 1008.9
20260505013704 26 215 4.8 12.9 0.00 0.00 0.00 48 1008.9
20260505013204 26 220 4.8 19.3 0.00 0.00 0.00 47 1008.9
20260505010204 27 249 3.2 12.9 0.00 0.00 0.00 44 1009.0
20260505003204 28 224 1.6 12.9 0.00 0.00 0.00 40 1009.0
20260505000705 28 245 8.0 16.1 0.00 0.00 0.00 37 1009.2
20260505000204 28 189 3.2 14.5 0.00 0.00 0.00 37 1009.2
20260504233704 27 296 6.4 16.1 0.00 0.00 0.00 32 1009.2
20260504233204 27 253 4.8 19.3 0.00 0.00 0.00 30 1009.2
20260504230704 28 220 3.2 12.9 0.00 0.00 0.00 32 1009.3
20260504230204 28 218 4.8 12.9 0.00 0.00 0.00 31 1009.3
20260504223705 27 226 4.8 14.5 0.00 0.00 0.00 33 1009.7
20260504223204 27 177 8.0 14.5 0.00 0.00 0.00 32 1009.7
20260504220204 27 253 3.2 12.9 0.00 0.00 0.00 32 1010.0
20260504213704 26 195 3.2 14.5 0.00 0.00 0.00 38 1010.1
20260504213204 27 240 4.8 12.9 0.00 0.00 0.00 36 1010.0
20260504210704 26 219 4.8 12.9 0.00 0.00 0.00 39 1010.2
20260504210204 26 270 6.4 14.5 0.00 0.00 0.00 38 1010.2
20260504203704 25 275 3.2 11.3 0.00 0.00 0.00 42 1010.4
20260504203203 25 168 4.8 16.1 0.00 0.00 0.00 41 1010.4
20260504200705 24 228 4.8 14.5 0.00 0.00 0.00 44 1010.3
20260504200204 25 170 3.2 14.5 0.00 0.00 0.00 44 1010.3
20260504193705 23 204 4.8 9.7 0.00 0.00 0.00 46 1010.5
20260504193204 23 172 4.8 19.3 0.00 0.00 0.00 45 1010.5
20260504190704 23 250 4.8 12.9 0.00 0.00 0.00 48 1010.7
20260504190204 23 189 6.4 14.5 0.00 0.00 0.00 49 1010.6
20260504183704 22 189 4.8 12.9 0.00 0.00 0.00 49 1010.8
20260504183205 22 223 4.8 14.5 0.00 0.00 0.00 49 1010.8
20260504180704 22 208 4.8 14.5 0.00 0.00 0.00 49 1010.9
20260504180203 22 254 3.2 14.5 0.00 0.00 0.00 50 1010.9
20260504173705 21 261 3.2 8.0 0.00 0.00 0.00 53 1010.8
20260504173204 21 183 4.8 14.5 0.00 0.00 0.00 54 1010.8
20260504170704 20 177 3.2 11.3 0.00 0.00 0.00 59 1010.8
20260504150705 15 267 1.6 3.2 0.00 0.00 0.00 75 1010.2
20260504150204 15 267 1.6 3.2 0.00 0.00 0.00 75 1010.2
20260504140704 14 71 0.0 0.0 0.00 0.00 0.00 75 1009.8
20260504130704 12 71 0.0 0.0 0.00 0.00 0.00 78 1009.3
20260504130204 12 71 0.0 0.0 0.00 0.00 0.00 78 1009.2
20260504110704 13 71 0.0 0.0 0.00 0.00 0.00 75 1009.1
20260504110204 13 71 0.0 3.2 0.00 0.00 0.00 75 1009.1
20260504100204 14 98 0.0 0.0 0.00 0.00 0.00 75 1009.0
20260504080704 16 66 0.0 0.0 0.00 0.00 0.00 68 1008.9
20260504080204 17 66 0.0 1.6 0.00 0.00 0.00 67 1009.0
20260504070205 17 66 0.0 3.2 0.00 0.00 0.00 62 1009.0
20260504050704 20 24 1.6 4.8 0.00 0.00 0.00 57 1008.9
20260504050204 20 23 1.6 4.8 0.00 0.00 0.00 58 1009.0
20260504043704 21 33 1.6 4.8 0.00 0.00 0.00 55 1009.0
20260504043204 21 14 1.6 4.8 0.00 0.00 0.00 55 1008.9
20260504040703 21 22 3.2 4.8 0.00 0.00 0.00 54 1008.8